C/2019 JU6 ( ATLAS )

Japanese version
Home page
Updated on August 6, 2019

---------------------------------------------------------------------

* Profile

Discovery Date May 12 and 21, 2019
Magnitude 18.8 mag
Discoverer Asteroid Terrestrial-Impact Last Alert System (ATLAS) search program, Pan-STARRS 2 telescope (Haleakala)

* Pictures

* Orbital Elements

Epoch 2019 June 6.0 TT = JDT 2458640.5
T 2019 June 1.05780 TT                                  MPCW
q   2.0457279            (2000.0)            P               Q
z  +0.0003809      Peri.   94.91758     +0.23380476     -0.95265766
 +/-0.0012718      Node    21.70371     -0.95991691     -0.25795419
e   0.9992208      Incl.  148.29191     +0.15457965     -0.16094415
From 64 observations 2019 May 12-30, mean residual 0".5.

* Magnitudes Graph

        m1 = 14.0 + 5 log d + 10.0 log r

---------------------------------------------------------------------

The orbital elements are published on M.P.E.C. 2019-L24.
The magnitudes graphs are made with Comet for Windows.

---------------------------------------------------------------------

Copyright(C) Seiichi Yoshida (comet@aerith.net). All rights reserved.